Location: Bytom
(50.3475°N, 18.9244°E)
Time: 09:50:56
(UTC+01:00)

ISS - Visible Passes

Search period start: 22 March 2019 00:00
Search period end: 01 April 2019 01:00
Orbit: 406 x 411 km, 51.6° (Epoch: 22 March)

Date Brightness Start Highest point End Pass type
(mag) Time Alt. Az. Time Alt. Az. Time Alt. Az.
22 Mar -2.6 19:38:30 10° SSW 19:40:45 27° S 19:40:45 27° S visible
23 Mar -2.2 18:48:07 10° S 18:50:33 19° SE 18:52:26 13° ESE visible
23 Mar -2.2 20:23:25 10° WSW 20:25:12 29° WSW 20:25:12 29° WSW visible
24 Mar -3.6 19:32:30 10° SW 19:35:43 52° SSE 19:36:40 37° ESE visible
24 Mar -0.8 21:08:58 10° W 21:09:26 13° W 21:09:26 13° W visible
25 Mar -3.0 18:41:41 10° SW 18:44:44 35° SSE 18:47:48 10° E visible
25 Mar -3.5 20:17:51 10° W 20:20:44 64° W 20:20:44 64° W visible
26 Mar -3.9 19:26:46 10° WSW 19:30:05 84° SSE 19:31:55 24° ENE visible
26 Mar -1.3 21:03:26 10° W 21:04:40 21° WNW 21:04:40 21° WNW visible
27 Mar -3.7 20:12:19 10° W 20:15:36 68° N 20:15:45 67° NNE visible
28 Mar -3.7 19:21:09 10° W 19:24:28 74° N 19:26:45 18° ENE visible
28 Mar -1.7 20:57:51 10° WNW 20:59:30 27° WNW 20:59:30 27° WNW visible
29 Mar -3.7 20:06:43 10° W 20:10:01 71° N 20:10:27 60° ENE visible
30 Mar -3.6 19:15:33 10° W 19:18:51 67° N 19:21:22 16° E visible
30 Mar -2.1 20:52:11 10° WNW 20:54:05 31° W 20:54:05 31° W visible
31 Mar -3.9 21:01:02 10° WNW 21:04:21 89° NNE 21:04:59 56° ESE visible
